COMSTAR 2

导读 | 豆包AI

COMSTAR 2是美国于1976年7月22日发射的通信卫星,由休斯飞机公司为美国电话电报公司(AT&T)建造,属于COMSTAR系列通信卫星,是AT&T首次尝试用卫星补充其地面通信系统的成果,推动了当时卫星通信产业的发展,该系列卫星最后一颗一直运行至2002年。

基本信息
目录编号:
9047
目录名称:
COMSTAR 2
国际标识:
1976-073A
轨道中心:
EARTH
卫星名称:
COMSTAR 2
卫星全名:
--
卫星状态:
在轨 (已飞行18180 天)
发射日期:
1976-07-22 UTC
国别 :
美国 (US)
星等 :
--
轨道信息
数据来源 国际轨道数据 AOE轨道数据
星历时间 2026-05-01T00:55:04+0800
14小时前
查看轨道信息
2026-05-01T03:00:00+0800
12小时前
查看轨道信息
半长轴 42245.884km 42246.335km
偏心率 0.0001038 0.000107
轨道倾角 8.021° 8.021°
近地点辐角 51.737° 50.190°
升交点赤经 305.472° 305.469°
平近点角 135.948° 168.721°
近地点 35863.361km 35863.677km
远地点 35872.133km 35872.719km
周期 1440.245分钟 1440.268分钟
每日圈数 0.99983 0.999814
详细信息
使用方式:
暂无
2D轨道图
3D轨道图
轨道高度分析图
轨道倾角分析图
轨道综合分析图
查看轨道综合分析图